Lid_Strength_Index
7 10 12 11 10 9 10 12 13 10 8 10 10 10 8 6 6 6 6 6 5 5 3 2 2 1 2 1 2 1 1 1 1 1 2 2 2 1 0 0 -0 -0 0 0
9 11 8 7 7 9 9 11 12 10 9 10 10 10 8 6 6 6 6 6 5 5 4 3 3 2 2 2 1 1 1 1 1 1 1 1 1 1 0 0 -0 0 0 0
10 9 6 7 8 10 10 10 11 13 10 9 11 13 10 7 6 5 5 5 5 5 4 4 3 3 2 2 2 2 1 1 1 1 1 1 1 1 1 1 1 0 0 0
8 7 8 9 10 9 11 8 9 11 12 16 10 17 12 9 9 7 6 5 5 4 4 3 3 3 2 2 1 1 1 1 1 1 1 2 2 3 2 1 1 0 -0 0
9 8 8 9 8 7 10 8 9 10 13 13 13 15 13 10 10 9 6 5 5 4 4 4 3 3 2 2 2 1 1 1 1 1 1 1 2 2 1 1 1 1 1 1
7 6 7 8 6 7 7 9 10 11 13 17 13 14 15 13 10 9 7 5 5 4 4 3 3 3 2 2 1 1 1 1 1 1 1 1 2 2 2 2 2 1 3 3
8 8 6 6 9 7 8 12 17 18 19 19 14 15 13 9 8 7 7 6 5 4 4 4 4 3 3 2 2 2 2 2 1 1 1 1 1 2 2 2 2 2 3 2
12 12 8 6 8 9 10 11 17 20 20 18 14 17 13 7 6 6 6 6 6 5 5 4 3 3 3 2 2 2 2 2 2 1 1 1 1 1 1 1 1 1 1 1
12 11 7 6 6 7 10 12 9 14 14 18 15 12 9 7 7 7 7 7 6 5 5 4 3 3 3 2 2 2 2 2 2 1 1 1 1 1 1 1 1 1 1 1
9 12 9 7 7 7 8 7 13 13 20 20 17 16 15 10 9 8 8 8 6 5 5 4 4 3 3 2 2 2 2 2 2 1 1 1 1 1 1 1 1 1 1 3
7 10 10 8 10 10 10 11 10 11 12 19 20 17 11 10 8 8 8 7 6 6 5 4 3 3 3 2 3 2 2 2 2 1 1 1 1 1 1 1 1 1 1 3
9 10 13 11 7 7 8 9 9 14 14 13 15 17 7 8 7 7 7 6 6 5 5 4 4 3 3 2 2 3 2 2 2 1 1 1 1 1 1 1 1 1 1 1
8 10 13 12 10 8 10 9 11 12 11 15 17 16 7 7 7 7 7 6 5 5 5 4 4 4 4 3 3 3 2 2 2 1 2 1 1 1 1 1 1 1 1 1
5 9 11 13 12 10 10 8 8 10 14 16 15 14 10 9 8 7 7 6 6 5 5 5 5 4 4 3 3 3 2 2 2 2 2 2 2 1 1 1 1 1 1 1
8 11 10 9 8 9 9 8 8 11 11 14 13 13 11 9 8 7 6 6 6 6 6 5 5 4 4 3 3 3 2 2 2 2 2 2 2 1 1 1 1 1 1 1
8 12 11 11 8 8 10 8 8 9 9 10 11 12 9 7 7 6 6 6 6 6 5 5 5 4 4 4 3 3 3 2 2 2 2 2 2 2 2 1 1 1 1 1
9 10 12 14 10 10 12 10 9 9 8 9 11 10 8 8 7 7 6 6 6 5 5 5 4 4 4 3 3 3 3 2 2 2 2 2 2 2 2 2 2 2 3 2
9 11 12 14 12 16 11 8 7 8 8 8 9 9 8 7 6 6 5 6 5 5 5 4 4 4 3 3 2 2 2 2 2 2 2 2 2 2 2 2 2 2 2 3
7 10 14 15 15 12 10 7 8 10 11 8 8 7 7 6 6 6 4 4 4 4 4 3 3 3 3 3 2 2 3 3 2 2 2 2 2 2 2 2 2 2 2 2
8 8 11 12 15 17 12 7 6 7 14 8 8 8 8 7 11 9 5 4 4 3 3 3 3 3 3 3 2 3 3 3 3 2 2 2 2 2 2 2 2 2 2 2
10 11 12 12 13 11 7 6 6 13 13 7 7 6 6 8 7 6 4 4 3 3 3 3 3 3 3 2 2 3 3 3 2 2 2 2 2 2 2 2 2 2 2 2
12 12 12 12 13 15 6 7 11 9 7 6 6 6 7 6 5 5 4 4 4 4 3 3 3 3 3 2 2 3 3 2 2 2 2 2 2 1 1 2 2 2 2 2
11 10 11 10 12 7 6 7 6 6 6 6 6 5 5 6 6 5 5 4 4 3 3 2 3 3 3 2 2 3 3 2 2 2 2 2 2 2 2 2 2 2 2 3
8 7 10 10 8 7 6 5 5 5 5 5 6 5 4 5 5 5 4 4 3 3 3 3 3 3 3 2 2 2 2 2 2 2 2 2 2 2 2 2 2 2 3 3
8 8 9 9 8 6 5 5 5 4 4 4 4 4 5 5 5 4 4 4 3 3 3 3 3 3 3 2 2 2 2 2 2 2 2 2 2 3 2 2 2 2 3 4
7 8 9 11 7 7 7 5 4 4 4 4 5 5 4 4 5 4 4 3 3 3 3 3 3 3 3 2 2 2 1 2 2 3 2 2 2 2 2 2 3 8 8 9